Regional Weather Roundup
Issued by NWS

Home | Current Version | Previous Version | Text Only | Print | Product List | Glossary On
Versions: 1 2 3 4 5 6 7 8 9 10 11 12 13 14 15 16 17 18 19 20 21 22 23 24 25 26 27 28 29 30 31 32 33 34 35 36 37 38 39 40 41 42 43 44 45 46 47 48 49 50
000
ASUS42 KFFC 302303
RWRGA
WEATHER ROUNDUP FOR GEORGIA
NATIONAL WEATHER SERVICE PEACHTREE CITY GA
700 PM EDT TUE JUN 30 2015

NOTE: "FAIR" INDICATES FEW OR NO CLOUDS BELOW 12,000 FEET WITH NO
SIGNIFICANT WEATHER AND/OR OBSTRUCTIONS TO VISIBILITY.

* = USE WITH CAUTION. THE STATIONS MARKED WITH AN ASTERISK MAY NOT
REPORT WEATHER SUCH AS PRECIPITATION, FOG, OR THUNDER AND ARE NOT
QUALITY CONTROLLED BY NWS.

THE REMARK "TC" DENOTES TEMPERATURE READING IN DEGREES CELSIUS.

GAZ001>058-010000-
NORTH GEORGIA

CITY           SKY/WX    TMP DP  RH WIND       PRES   REMARKS
ATLANTA        MOSUNNY   84  66  54 SW9       29.95F
ATHENS         PTSUNNY   73  69  87 SE5       29.95F
CHAMBLEE       MOSUNNY   84  65  52 SW14      29.94F
PEACHTREE CITY SUNNY     83  65  54 W8        29.95S
ROME           MOSUNNY   83  68  60 SW8       29.91S
WEST ATLANTA   SUNNY     85  66  53 SW7       29.93F
GAINESVILLE    PTSUNNY   82  65  56 W7        29.96F
CARTERSVILLE   MOSUNNY   73  69  87 SE3       29.94S


CITY           SKY/WX    TMP DP  RH WIND       PRES   REMARKS
DALTON*        MOSUNNY   81  68  65 CALM      29.91F
LAWRENCEVILLE* MOSUNNY   82  61  47 SW12      29.92F
KENNESAW*      LGT RAIN  82  66  57 MISG      29.95F
BLAIRSVILLE*     N/A     77  42  28 W3        29.98S
$$

GAZ059>098-102>109-010000-
CENTRAL GEORGIA

CITY           SKY/WX    TMP DP  RH WIND       PRES   REMARKS
AUGUSTA-BUSH   CLOUDY    75  70  84 S6        29.95F
AUGUSTA-DANIEL CLOUDY    76  69  79 S7        29.97F
COLUMBUS       MOSUNNY   81  62  52 W7        29.97R
MACON          CLOUDY    80  69  69 S8        29.96F
ROBINS AFB     CLOUDY    78  70  78 S9        29.96F


CITY           SKY/WX    TMP DP  RH WIND       PRES   REMARKS
LAGRANGE*      MOSUNNY   85  72  66 SW7       29.97R HX  91
SYLVANIA*      CLOUDY    73  72  97 CALM      29.98F
MILLEDGEVILLE* CLOUDY    81  70  69 CALM      29.94S
$$

GAZ099>101-110>166-010000-
SOUTH GEORGIA

CITY           SKY/WX    TMP DP  RH WIND       PRES   REMARKS
SAVANNAH       CLOUDY    77  66  68 W6        29.98F
VALDOSTA       PTSUNNY   77  73  87 S5        30.04S
ALMA           PTSUNNY   76  70  82 S10       30.00F
ST SIMONS      CLOUDY    75  69  81 SW10      30.01F
FT STEWART     CLOUDY    76  68  77 SW3       29.97F
ALBANY         PTSUNNY   80  75  84 SW10      30.01F
HUNTER AFB     CLOUDY    78  68  69 W7        29.96F
MOODY AFB      PTSUNNY   76  70  84 VRB3      30.03S
BRUNSWICK      CLOUDY    77  72  83 SW8       30.01F


CITY           SKY/WX    TMP DP  RH WIND       PRES   REMARKS
BAINBRIDGE*    LGT RAIN  73  72  94 S6        30.00F
MOULTRIE*      PTSUNNY   79  72  78 S5        30.03F
VIDALIA*       HVY RAIN  73  70  88 SW7       29.99F
WAYCROSS*      PTSUNNY   78  74  87 W8        30.03R
DOUGLAS*       CLOUDY    75  72  88 SW12      30.03F
$$


USA.gov is the U.S. government's official web portal to all federal, state and local government web resources and services.